• Em Portugal
  • Lista de países
  • Para 7 dias
  • Temperatura da água
  • Mapas de satélite
  • Mapa do tempo
  • Widgets de tempo
  • user-avatar
    Iniciar Sessão

    Previsão horária em Alanya

    Hoje, 20 Outubro, Sexta-feira

    Tempo Temperatura Precipitação Vento Pressão Humidade
    00:00 +18°C° 0 mm 2 m/s 758 mmHg 38%
    01:00 +18°C° 0 mm 2 m/s 758 mmHg 38%
    02:00 +19°C° 0 mm 1 m/s 758 mmHg 39%
    03:00 +19°C° 0 mm 1 m/s 758 mmHg 40%
    04:00 +17°C° 0 mm 2 m/s 758 mmHg 41%
    05:00 +17°C° 0 mm 2 m/s 758 mmHg 42%
    06:00 +21°C° 0 mm 1 m/s 758 mmHg 36%
    07:00 +23°C° 0 mm 1 m/s 758 mmHg 30%
    08:00 +26°C° 0 mm 1 m/s 759 mmHg 24%
    09:00 +27°C° 0 mm 1 m/s 759 mmHg 22%
    10:00 +29°C° 0 mm 1 m/s 759 mmHg 20%
    11:00 +30°C° 0 mm 1 m/s 759 mmHg 19%
    12:00 +30°C° 0 mm 2 m/s 758 mmHg 18%
    13:00 +30°C° 0 mm 2 m/s 758 mmHg 18%
    14:00 +30°C° 0 mm 2 m/s 758 mmHg 18%
    15:00 +28°C° 0 mm 2 m/s 758 mmHg 23%
    16:00 +26°C° 0 mm 1 m/s 758 mmHg 29%
    17:00 +23°C° 0 mm 1 m/s 758 mmHg 35%
    18:00 +22°C° 0 mm 1 m/s 758 mmHg 34%
    19:00 +22°C° 0 mm 1 m/s 758 mmHg 34%
    20:00 +21°C° 0 mm 1 m/s 758 mmHg 34%
    21:00 +20°C° 0 mm 1 m/s 758 mmHg 34%
    22:00 +20°C° 0 mm 1 m/s 758 mmHg 33%
    23:00 +20°C° 0 mm 1 m/s 758 mmHg 33%

    Amanhã, 21 Outubro, Sábado

    Tempo Temperatura Precipitação Vento Pressão Humidade
    00:00 +20°C° 0 mm 1 m/s 758 mmHg 33%
    01:00 +19°C° 0 mm 1 m/s 758 mmHg 33%
    02:00 +18°C° 0 mm 2 m/s 758 mmHg 33%
    03:00 +18°C° 0 mm 2 m/s 758 mmHg 34%
    04:00 +17°C° 0 mm 2 m/s 758 mmHg 34%
    05:00 +17°C° 0 mm 2 m/s 757 mmHg 35%
    06:00 +21°C° 0 mm 1 m/s 758 mmHg 31%
    07:00 +23°C° 0 mm 1 m/s 758 mmHg 26%
    08:00 +25°C° 0 mm 1 m/s 758 mmHg 22%
    09:00 +27°C° 0 mm 1 m/s 758 mmHg 20%
    10:00 +28°C° 0 mm 2 m/s 758 mmHg 19%
    11:00 +29°C° 0 mm 2 m/s 758 mmHg 18%
    12:00 +30°C° 0 mm 2 m/s 757 mmHg 18%
    13:00 +30°C° 0 mm 2 m/s 757 mmHg 19%
    14:00 +30°C° 0 mm 2 m/s 756 mmHg 20%
    15:00 +28°C° 0 mm 2 m/s 756 mmHg 27%
    16:00 +25°C° 0 mm 2 m/s 756 mmHg 33%
    17:00 +23°C° 0 mm 1 m/s 756 mmHg 40%
    18:00 +22°C° 0 mm 1 m/s 756 mmHg 41%
    19:00 +21°C° 0 mm 1 m/s 756 mmHg 41%
    20:00 +20°C° 0 mm 1 m/s 756 mmHg 42%
    21:00 +20°C° 0 mm 1 m/s 756 mmHg 39%
    22:00 +20°C° 0 mm 1 m/s 756 mmHg 37%
    23:00 +20°C° 0 mm 1 m/s 756 mmHg 35%

    Depois de amanhã, 22 Outubro, Domingo

    Tempo Temperatura Precipitação Vento Pressão Humidade
    00:00 +20°C° 0 mm 1 m/s 756 mmHg 35%
    01:00 +19°C° 0 mm 1 m/s 756 mmHg 34%
    02:00 +19°C° 0 mm 1 m/s 756 mmHg 34%
    03:00 +19°C° 0 mm 1 m/s 756 mmHg 34%
    04:00 +19°C° 0 mm 1 m/s 755 mmHg 34%
    05:00 +18°C° 0 mm 1 m/s 755 mmHg 34%
    06:00 +21°C° 0 mm 1 m/s 756 mmHg 30%
    07:00 +23°C° 0 mm 1 m/s 756 mmHg 26%
    08:00 +25°C° 0 mm 1 m/s 756 mmHg 21%
    09:00 +26°C° 0 mm 1 m/s 756 mmHg 21%
    10:00 +28°C° 0 mm 1 m/s 756 mmHg 20%
    11:00 +29°C° 0 mm 2 m/s 756 mmHg 20%
    12:00 +29°C° 0 mm 2 m/s 755 mmHg 21%
    13:00 +29°C° 0 mm 2 m/s 755 mmHg 23%
    14:00 +29°C° 0 mm 2 m/s 754 mmHg 24%
    15:00 +27°C° 0 mm 2 m/s 754 mmHg 33%
    16:00 +25°C° 0 mm 2 m/s 754 mmHg 41%
    17:00 +23°C° 0 mm 1 m/s 754 mmHg 50%
    18:00 +22°C° 0 mm 1 m/s 754 mmHg 51%
    19:00 +21°C° 0 mm 1 m/s 755 mmHg 53%
    20:00 +20°C° 0 mm 1 m/s 755 mmHg 54%
    21:00 +20°C° 0 mm 1 m/s 755 mmHg 52%
    22:00 +19°C° 0 mm 1 m/s 755 mmHg 51%
    23:00 +19°C° 0 mm 1 m/s 755 mmHg 49%

    23 Outubro, Segunda-feira

    Tempo Temperatura Precipitação Vento Pressão Humidade
    00:00 +19°C° 0 mm 1 m/s 755 mmHg 47%
    01:00 +18°C° 0 mm 1 m/s 755 mmHg 45%
    02:00 +18°C° 0 mm 1 m/s 755 mmHg 43%
    03:00 +18°C° 0 mm 1 m/s 755 mmHg 43%
    04:00 +16°C° 0 mm 1 m/s 754 mmHg 43%
    05:00 +16°C° 0 mm 1 m/s 754 mmHg 42%
    06:00 +19°C° 0 mm 1 m/s 755 mmHg 36%
    07:00 +22°C° 0 mm 1 m/s 755 mmHg 30%
    08:00 +24°C° 0 mm 1 m/s 755 mmHg 24%
    09:00 +26°C° 0 mm 2 m/s 755 mmHg 24%
    10:00 +27°C° 0 mm 2 m/s 754 mmHg 24%
    11:00 +28°C° 0 mm 3 m/s 754 mmHg 24%
    12:00 +28°C° 0 mm 3 m/s 754 mmHg 26%
    13:00 +28°C° 0 mm 3 m/s 753 mmHg 28%
    14:00 +28°C° 0 mm 3 m/s 753 mmHg 31%
    15:00 +26°C° 0 mm 3 m/s 753 mmHg 41%
    16:00 +24°C° 0 mm 2 m/s 753 mmHg 50%
    17:00 +21°C° 0 mm 2 m/s 753 mmHg 60%
    18:00 +20°C° 0 mm 2 m/s 753 mmHg 66%
    19:00 +19°C° 0 mm 2 m/s 754 mmHg 72%
    20:00 +17°C° 0 mm 2 m/s 754 mmHg 78%
    21:00 +17°C° 0 mm 2 m/s 754 mmHg 74%
    22:00 +17°C° 0 mm 2 m/s 754 mmHg 70%
    23:00 +17°C° 0 mm 3 m/s 754 mmHg 66%

    24 Outubro, Terça-feira

    Tempo Temperatura Precipitação Vento Pressão Humidade
    00:00 +17°C° 0 mm 3 m/s 754 mmHg 64%
    01:00 +17°C° 0 mm 3 m/s 753 mmHg 62%
    02:00 +17°C° 0 mm 3 m/s 753 mmHg 60%
    03:00 +16°C° 0,1 mm 3 m/s 753 mmHg 63%
    04:00 +16°C° 0,1 mm 3 m/s 753 mmHg 67%
    05:00 +16°C° 0,1 mm 3 m/s 753 mmHg 71%
    06:00 +18°C° 0,3 mm 4 m/s 753 mmHg 71%
    07:00 +19°C° 0,3 mm 4 m/s 754 mmHg 71%
    08:00 +20°C° 0,3 mm 4 m/s 754 mmHg 71%
    09:00 +22°C° 0,3 mm 4 m/s 754 mmHg 66%
    10:00 +23°C° 0,3 mm 5 m/s 754 mmHg 62%
    11:00 +25°C° 0,3 mm 5 m/s 754 mmHg 58%
    12:00 +25°C° 0,5 mm 5 m/s 753 mmHg 59%
    13:00 +24°C° 0,5 mm 6 m/s 753 mmHg 60%
    14:00 +24°C° 0,5 mm 6 m/s 753 mmHg 61%
    15:00 +23°C° 0,9 mm 5 m/s 753 mmHg 67%
    16:00 +22°C° 0,9 mm 5 m/s 753 mmHg 74%
    17:00 +21°C° 0,9 mm 4 m/s 753 mmHg 80%
    18:00 +20°C° 0,7 mm 4 m/s 753 mmHg 84%
    19:00 +19°C° 0,7 mm 5 m/s 753 mmHg 87%
    20:00 +19°C° 0,7 mm 5 m/s 753 mmHg 90%
    21:00 +19°C° 0,6 mm 5 m/s 753 mmHg 90%
    22:00 +19°C° 0,6 mm 5 m/s 753 mmHg 89%
    23:00 +19°C° 0,6 mm 6 m/s 753 mmHg 89%

    25 Outubro, Quarta-feira

    Tempo Temperatura Precipitação Vento Pressão Humidade
    00:00 +19°C° 0,8 mm 6 m/s 753 mmHg 90%
    01:00 +19°C° 0,8 mm 6 m/s 753 mmHg 91%
    02:00 +19°C° 0,8 mm 6 m/s 753 mmHg 92%
    03:00 +19°C° 2 mm 6 m/s 753 mmHg 92%
    04:00 +18°C° 2 mm 7 m/s 753 mmHg 92%
    05:00 +18°C° 2 mm 7 m/s 753 mmHg 93%
    06:00 +20°C° 4 mm 7 m/s 754 mmHg 90%
    07:00 +20°C° 4 mm 7 m/s 754 mmHg 87%
    08:00 +20°C° 4 mm 8 m/s 754 mmHg 84%
    09:00 +21°C° 3,9 mm 7 m/s 754 mmHg 83%
    10:00 +21°C° 3,9 mm 7 m/s 755 mmHg 82%
    11:00 +22°C° 3,9 mm 7 m/s 755 mmHg 81%
    12:00 +21°C° 3,6 mm 6 m/s 755 mmHg 84%
    13:00 +21°C° 3,6 mm 5 m/s 755 mmHg 86%
    14:00 +21°C° 3,6 mm 4 m/s 755 mmHg 89%
    15:00 +20°C° 1,1 mm 4 m/s 755 mmHg 90%
    16:00 +20°C° 1,1 mm 3 m/s 755 mmHg 91%
    17:00 +20°C° 1,1 mm 3 m/s 756 mmHg 91%
    18:00 +19°C° 0,7 mm 2 m/s 756 mmHg 92%
    19:00 +18°C° 0,7 mm 2 m/s 757 mmHg 92%
    20:00 +18°C° 0,7 mm 2 m/s 757 mmHg 93%
    21:00 +17°C° 0,3 mm 2 m/s 758 mmHg 91%
    22:00 +17°C° 0,3 mm 2 m/s 758 mmHg 89%
    23:00 +17°C° 0,3 mm 2 m/s 758 mmHg 88%
    Mostrar mais